DAL69 KSEA-RCTP

Flight info

Callsign DAL69
Flight time N/A
Altitude 34000
Route BANGR9 ARRIE DCT TOU DCT DOLFF DCT PRETY DCT 51N140W 53N150W 54N160W DCT RIZON/N0493F360 DCT ADK DCT 50N176E 47N170E 39N160E/N0492F380 33N150E DCT NOGAK DCT BIXAK/N0490F400 DCT RYUKI Z32 YUSKE Y322 SEDKU R595 GRACE GRACE1A
Aircraft A359/H-SDE2E3GHIJ3J4J5LM1ORWXY/LB1D1

Departure

Time N/A
Airport Seattle–Tacoma International Airport (KSEA)

Arrival

Time 2026-05-05 11:46
Airport Taiwan Taoyuan International Airport (RCTP)
Time Latitude Longitude Altitude Speed Heading
2026-05-05 09:57 27.79128 132.82308 39846 ft 417 kts 253°
2026-05-05 09:57 27.78240 132.79196 39966 ft 416 kts 253°
2026-05-05 09:57 27.77353 132.76087 40074 ft 416 kts 253°
2026-05-05 09:57 27.76462 132.72972 40127 ft 417 kts 253°
2026-05-05 09:58 27.74678 132.66741 40122 ft 417 kts 253°
2026-05-05 09:58 27.72894 132.60523 40126 ft 416 kts 252°
2026-05-05 09:59 27.71111 132.54326 40123 ft 414 kts 253°
2026-05-05 09:59 27.69326 132.48126 40119 ft 415 kts 253°
2026-05-05 10:00 27.67538 132.41927 40122 ft 416 kts 253°
2026-05-05 10:00 27.65760 132.35778 40132 ft 414 kts 252°
2026-05-05 10:01 27.63974 132.29611 40115 ft 414 kts 252°
2026-05-05 10:01 27.62185 132.23445 40119 ft 414 kts 252°
2026-05-05 10:02 27.60396 132.17279 40119 ft 416 kts 252°
2026-05-05 10:02 27.58589 132.11082 40118 ft 416 kts 252°
2026-05-05 10:03 27.56781 132.04889 40124 ft 416 kts 252°
2026-05-05 10:03 27.54971 131.98699 40132 ft 416 kts 252°
2026-05-05 10:04 27.53158 131.92508 40117 ft 416 kts 252°
2026-05-05 10:04 27.51342 131.86319 40117 ft 417 kts 252°
2026-05-05 10:05 27.49516 131.80108 40118 ft 418 kts 252°
2026-05-05 10:05 27.47700 131.73937 40115 ft 418 kts 252°
2026-05-05 10:06 27.45867 131.67725 40128 ft 418 kts 252°
2026-05-05 10:06 27.44030 131.61512 40116 ft 418 kts 252°
2026-05-05 10:07 27.42192 131.55305 40097 ft 418 kts 252°
2026-05-05 10:07 27.40349 131.49091 40119 ft 420 kts 252°
2026-05-05 10:08 27.38497 131.42859 40119 ft 420 kts 252°
2026-05-05 10:08 27.36641 131.36624 40115 ft 420 kts 252°
2026-05-05 10:09 27.34781 131.30391 40116 ft 419 kts 252°
2026-05-05 10:09 27.32929 131.24191 40119 ft 418 kts 252°
2026-05-05 10:10 27.31073 131.17992 40117 ft 419 kts 252°
2026-05-05 10:10 27.29208 131.11770 40125 ft 421 kts 252°
2026-05-05 10:11 27.27340 131.05555 40114 ft 419 kts 252°
2026-05-05 10:11 27.25489 130.99405 40111 ft 418 kts 252°
2026-05-05 10:12 27.23622 130.93215 40110 ft 418 kts 252°
2026-05-05 10:12 27.21753 130.87027 40111 ft 417 kts 252°
2026-05-05 10:13 27.19882 130.80844 40114 ft 419 kts 252°
2026-05-05 10:13 27.18001 130.74637 40114 ft 420 kts 252°
2026-05-05 10:14 27.16114 130.68425 40111 ft 420 kts 251°
2026-05-05 10:14 27.14225 130.62217 40110 ft 420 kts 251°
2026-05-05 10:15 27.12333 130.56007 40110 ft 420 kts 251°
2026-05-05 10:15 27.10438 130.49800 40111 ft 420 kts 251°
2026-05-05 10:16 27.08542 130.43603 40106 ft 419 kts 252°
2026-05-05 10:16 27.06650 130.37426 40108 ft 419 kts 252°
2026-05-05 10:17 27.04755 130.31253 40109 ft 418 kts 252°
2026-05-05 10:17 27.02856 130.25078 40127 ft 418 kts 252°
2026-05-05 10:18 27.00959 130.18920 40119 ft 417 kts 252°
2026-05-05 10:18 26.99062 130.12771 40116 ft 418 kts 251°
2026-05-05 10:19 26.97155 130.06601 40102 ft 419 kts 251°
2026-05-05 10:19 26.95254 130.00464 40110 ft 419 kts 251°
2026-05-05 10:20 26.93342 129.94301 40103 ft 418 kts 251°
2026-05-05 10:20 26.91430 129.88147 40102 ft 418 kts 251°
2026-05-05 10:21 26.89519 129.82005 40113 ft 418 kts 251°
2026-05-05 10:21 26.87602 129.75858 40100 ft 418 kts 251°
2026-05-05 10:22 26.85680 129.69705 40114 ft 419 kts 251°
2026-05-05 10:22 26.83753 129.63546 40097 ft 419 kts 251°
2026-05-05 10:23 26.81825 129.57394 40122 ft 419 kts 251°
2026-05-05 10:23 26.79897 129.51252 40100 ft 417 kts 251°
2026-05-05 10:24 26.77972 129.45131 40097 ft 417 kts 251°
2026-05-05 10:24 26.76042 129.39004 40102 ft 419 kts 251°
2026-05-05 10:25 26.74096 129.32836 40100 ft 421 kts 251°
2026-05-05 10:25 26.72148 129.26676 40094 ft 419 kts 251°
2026-05-05 10:26 26.70206 129.20545 40098 ft 418 kts 251°
2026-05-05 10:26 26.68264 129.14420 40098 ft 418 kts 251°
2026-05-05 10:27 26.66317 129.08293 40095 ft 417 kts 251°
2026-05-05 10:27 26.64385 129.02222 40097 ft 418 kts 251°
2026-05-05 10:28 26.62426 128.96076 40095 ft 421 kts 251°
2026-05-05 10:28 26.60458 128.89912 40094 ft 421 kts 251°
2026-05-05 10:29 26.58495 128.83776 40090 ft 418 kts 251°
2026-05-05 10:29 26.56536 128.77664 40092 ft 417 kts 251°
2026-05-05 10:30 26.54581 128.71573 40095 ft 417 kts 251°
2026-05-05 10:30 26.52621 128.65473 40108 ft 419 kts 251°
2026-05-05 10:31 26.50648 128.59347 40090 ft 418 kts 251°
2026-05-05 10:31 26.48679 128.53243 40100 ft 418 kts 251°
2026-05-05 10:32 26.46710 128.47148 40082 ft 417 kts 251°
2026-05-05 10:32 26.44739 128.41057 40092 ft 417 kts 251°
2026-05-05 10:33 26.42765 128.34967 40096 ft 417 kts 251°
2026-05-05 10:33 26.40786 128.28873 40085 ft 420 kts 251°
2026-05-05 10:34 26.39123 128.23758 40087 ft 424 kts 251°
2026-05-05 10:34 26.37107 128.17571 40097 ft 424 kts 251°
2026-05-05 10:35 26.35101 128.11425 40083 ft 420 kts 251°
2026-05-05 10:35 26.33104 128.05311 40076 ft 419 kts 251°
2026-05-05 10:36 26.31106 127.99203 40073 ft 419 kts 251°
2026-05-05 10:36 26.29117 127.93137 40084 ft 419 kts 251°
2026-05-05 10:37 26.27112 127.87030 40091 ft 420 kts 251°
2026-05-05 10:37 26.25101 127.80916 40091 ft 420 kts 251°
2026-05-05 10:38 26.23086 127.74800 40092 ft 420 kts 251°
2026-05-05 10:38 26.21069 127.68688 40060 ft 419 kts 251°
2026-05-05 10:39 26.19059 127.62607 40079 ft 418 kts 251°
2026-05-05 10:39 26.17050 127.56539 40050 ft 417 kts 251°
2026-05-05 10:40 26.15034 127.50458 40076 ft 421 kts 251°
2026-05-05 10:40 26.13002 127.44339 40071 ft 421 kts 251°
2026-05-05 10:41 26.10974 127.38241 40066 ft 420 kts 251°
2026-05-05 10:41 26.08945 127.32152 40075 ft 420 kts 251°
2026-05-05 10:42 26.05911 127.23066 40087 ft 420 kts 251°
2026-05-05 10:43 26.03879 127.16991 40052 ft 418 kts 250°
2026-05-05 10:43 26.01843 127.10913 40070 ft 420 kts 250°
2026-05-05 10:44 25.99801 127.04828 40072 ft 421 kts 250°
2026-05-05 10:44 25.97752 126.98734 40077 ft 420 kts 250°
2026-05-05 10:45 25.95706 126.92655 40067 ft 420 kts 250°
2026-05-05 10:45 25.93657 126.86579 40064 ft 419 kts 250°
2026-05-05 10:46 25.91607 126.80508 40069 ft 420 kts 250°
2026-05-05 10:46 25.89556 126.74445 40076 ft 419 kts 250°
2026-05-05 10:47 25.87518 126.68429 40064 ft 419 kts 250°
2026-05-05 10:47 25.85466 126.62383 40067 ft 418 kts 250°
2026-05-05 10:48 25.83410 126.56333 40065 ft 418 kts 250°
2026-05-05 10:48 25.81355 126.50295 40064 ft 418 kts 250°
2026-05-05 10:49 25.79298 126.44264 40061 ft 417 kts 250°
2026-05-05 10:49 25.77242 126.38241 40053 ft 417 kts 249°
2026-05-05 10:50 25.75177 126.32202 40068 ft 421 kts 249°
2026-05-05 10:50 25.73094 126.26122 40067 ft 421 kts 249°
2026-05-05 10:51 25.71011 126.20049 40061 ft 421 kts 249°
2026-05-05 10:51 25.68930 126.13994 40061 ft 420 kts 249°
2026-05-05 10:52 25.66846 126.07936 40058 ft 420 kts 249°
2026-05-05 10:52 25.64774 126.01925 40059 ft 420 kts 249°
2026-05-05 10:53 25.62685 125.95874 40062 ft 422 kts 249°
2026-05-05 10:53 25.60580 125.89785 40059 ft 424 kts 249°
2026-05-05 10:54 25.58469 125.83687 40057 ft 424 kts 249°
2026-05-05 10:54 25.56351 125.77581 40061 ft 424 kts 249°
2026-05-05 10:55 25.54237 125.71495 40056 ft 422 kts 249°
2026-05-05 10:55 25.52130 125.65437 40053 ft 421 kts 249°
2026-05-05 10:56 25.50023 125.59389 40027 ft 421 kts 249°
2026-05-05 10:56 25.47908 125.53329 40054 ft 423 kts 249°
2026-05-05 10:57 25.45785 125.47252 40055 ft 423 kts 249°
2026-05-05 10:57 25.43664 125.41193 40045 ft 421 kts 249°
2026-05-05 10:58 25.41546 125.35151 40044 ft 421 kts 249°
2026-05-05 10:58 25.39438 125.29145 40045 ft 421 kts 249°
2026-05-05 10:59 25.37314 125.23105 40050 ft 421 kts 249°
2026-05-05 10:59 25.35189 125.17070 40039 ft 421 kts 249°
2026-05-05 11:00 25.33054 125.11016 40046 ft 423 kts 249°
2026-05-05 11:00 25.30914 125.04954 40044 ft 423 kts 249°
2026-05-05 11:01 25.28770 124.98895 40055 ft 423 kts 249°
2026-05-05 11:01 25.26625 124.92842 40042 ft 423 kts 249°
2026-05-05 11:02 25.24480 124.86794 40042 ft 422 kts 249°
2026-05-05 11:02 25.22333 124.80754 40045 ft 422 kts 249°
2026-05-05 11:03 25.20183 124.74711 40039 ft 424 kts 249°
2026-05-05 11:03 25.18024 124.68653 40043 ft 424 kts 249°
2026-05-05 11:04 25.15863 124.62599 40043 ft 424 kts 249°
2026-05-05 11:04 25.13702 124.56554 40039 ft 423 kts 249°
2026-05-05 11:05 25.11553 124.50549 40039 ft 423 kts 249°
2026-05-05 11:05 25.09388 124.44509 40036 ft 423 kts 249°
2026-05-05 11:06 25.07222 124.38479 40034 ft 422 kts 249°
2026-05-05 11:06 25.05054 124.32450 40033 ft 424 kts 249°
2026-05-05 11:07 25.02878 124.26407 40031 ft 424 kts 249°
2026-05-05 11:07 25.00698 124.20361 40040 ft 424 kts 249°
2026-05-05 11:08 24.98517 124.14320 40036 ft 424 kts 249°
2026-05-05 11:08 24.96334 124.08286 40026 ft 424 kts 249°
2026-05-05 11:09 24.94415 124.02154 40028 ft 424 kts 256°
2026-05-05 11:09 24.93865 123.95699 40029 ft 427 kts 270°
2026-05-05 11:10 24.94409 123.89187 40027 ft 427 kts 273°
2026-05-05 11:10 24.95130 123.82685 40029 ft 427 kts 274°
2026-05-05 11:11 24.95847 123.76232 40021 ft 428 kts 274°
2026-05-05 11:11 24.96544 123.69703 40023 ft 429 kts 273°
2026-05-05 11:12 24.97227 123.63181 40025 ft 428 kts 273°
2026-05-05 11:12 24.97903 123.56670 40026 ft 427 kts 273°
2026-05-05 11:13 24.98576 123.50163 40026 ft 427 kts 273°
2026-05-05 11:13 24.99247 123.43664 40026 ft 427 kts 273°
2026-05-05 11:14 24.99915 123.37160 40030 ft 427 kts 273°
2026-05-05 11:14 25.00579 123.30664 40031 ft 427 kts 273°
2026-05-05 11:15 25.01242 123.24160 40031 ft 427 kts 273°
2026-05-05 11:15 25.01901 123.17662 40031 ft 427 kts 273°
2026-05-05 11:16 25.02556 123.11206 40032 ft 425 kts 273°
2026-05-05 11:16 25.03202 123.04732 40028 ft 425 kts 273°
2026-05-05 11:17 25.03847 122.98259 40027 ft 425 kts 273°
2026-05-05 11:17 25.04495 122.91785 40031 ft 425 kts 273°
2026-05-05 11:18 25.05136 122.85312 40035 ft 424 kts 272°
2026-05-05 11:18 25.05774 122.78842 40034 ft 424 kts 272°
2026-05-05 11:19 25.06411 122.72370 40034 ft 424 kts 272°
2026-05-05 11:19 25.07045 122.65903 40034 ft 424 kts 272°
2026-05-05 11:20 25.07676 122.59431 40045 ft 424 kts 272°
2026-05-05 11:20 25.08305 122.52958 40037 ft 425 kts 272°
2026-05-05 11:21 25.08932 122.46475 40038 ft 425 kts 272°
2026-05-05 11:21 25.09555 122.40002 40038 ft 425 kts 272°
2026-05-05 11:22 25.10177 122.33521 40043 ft 425 kts 272°
2026-05-05 11:22 25.11634 122.27194 39501 ft 432 kts 290°
2026-05-05 11:22 25.13081 122.24279 38915 ft 436 kts 293°
2026-05-05 11:23 25.14107 122.22373 38399 ft 438 kts 294°
2026-05-05 11:23 25.15678 122.19481 37633 ft 439 kts 294°
2026-05-05 11:23 25.17750 122.15649 36717 ft 438 kts 294°
2026-05-05 11:23 25.18802 122.13695 36242 ft 439 kts 294°
2026-05-05 11:24 25.20356 122.10801 35511 ft 440 kts 295°
2026-05-05 11:24 25.22426 122.06935 34458 ft 444 kts 295°
2026-05-05 11:24 25.23489 122.04946 33862 ft 447 kts 295°
2026-05-05 11:24 25.25080 122.01970 32920 ft 451 kts 295°
2026-05-05 11:25 25.26678 121.98979 32021 ft 454 kts 295°
2026-05-05 11:25 25.28293 121.95956 31109 ft 458 kts 295°
2026-05-05 11:25 25.29909 121.92930 30514 ft 455 kts 295°
2026-05-05 11:25 25.31509 121.89933 29862 ft 452 kts 295°
2026-05-05 11:26 25.33096 121.86955 29188 ft 449 kts 295°
2026-05-05 11:26 25.34659 121.84021 28549 ft 446 kts 295°
2026-05-05 11:26 25.36246 121.81039 27915 ft 443 kts 295°
2026-05-05 11:26 25.37783 121.78149 27311 ft 440 kts 295°
2026-05-05 11:27 25.39330 121.75237 26692 ft 437 kts 295°
2026-05-05 11:27 25.40867 121.72342 26071 ft 435 kts 294°
2026-05-05 11:27 25.42395 121.69462 25460 ft 433 kts 294°
2026-05-05 11:27 25.43916 121.66594 24839 ft 432 kts 294°
2026-05-05 11:28 25.45422 121.63731 24216 ft 430 kts 293°
2026-05-05 11:28 25.46604 121.60734 23592 ft 419 kts 281°
2026-05-05 11:28 25.47015 121.57596 22924 ft 406 kts 265°
2026-05-05 11:28 25.46649 121.54553 22347 ft 395 kts 252°
2026-05-05 11:29 25.45602 121.51794 21796 ft 387 kts 239°
2026-05-05 11:29 25.43974 121.49466 21240 ft 382 kts 226°
2026-05-05 11:29 25.41902 121.47638 20656 ft 380 kts 217°
2026-05-05 11:29 25.39813 121.45881 20100 ft 374 kts 224°
2026-05-05 11:30 25.38009 121.43833 19512 ft 370 kts 229°
2026-05-05 11:30 25.36312 121.41702 18909 ft 368 kts 230°
2026-05-05 11:30 25.34642 121.39569 18330 ft 366 kts 230°
2026-05-05 11:30 25.32983 121.37449 17665 ft 363 kts 231°
2026-05-05 11:31 25.31341 121.35352 17056 ft 359 kts 231°
2026-05-05 11:31 25.29715 121.33278 16461 ft 355 kts 231°
2026-05-05 11:31 25.28102 121.31220 15889 ft 353 kts 231°
2026-05-05 11:31 25.26498 121.29177 15313 ft 352 kts 231°
2026-05-05 11:32 25.24901 121.27143 14733 ft 350 kts 231°
2026-05-05 11:32 25.23313 121.25123 14153 ft 347 kts 232°
2026-05-05 11:32 25.21736 121.23117 13570 ft 344 kts 232°
2026-05-05 11:32 25.20178 121.21132 12966 ft 340 kts 232°
2026-05-05 11:33 25.18633 121.19165 12404 ft 337 kts 232°
2026-05-05 11:33 25.17102 121.17218 11872 ft 335 kts 231°
2026-05-05 11:33 25.15584 121.15288 11306 ft 334 kts 231°
2026-05-05 11:33 25.14083 121.13382 11060 ft 322 kts 231°
2026-05-05 11:34 25.12647 121.11562 10948 ft 307 kts 231°
2026-05-05 11:34 25.11280 121.09830 10817 ft 292 kts 231°
2026-05-05 11:34 25.09965 121.08173 10688 ft 279 kts 231°
2026-05-05 11:34 25.08722 121.06590 10551 ft 267 kts 231°
2026-05-05 11:35 25.07531 121.05072 10450 ft 257 kts 231°
2026-05-05 11:35 25.06362 121.03583 10013 ft 259 kts 231°
2026-05-05 11:35 25.05186 121.02086 9564 ft 264 kts 231°
2026-05-05 11:35 25.03959 121.00527 9209 ft 266 kts 231°
2026-05-05 11:36 25.02763 120.99010 8880 ft 266 kts 230°
2026-05-05 11:36 25.01553 120.97484 8567 ft 265 kts 230°
2026-05-05 11:36 25.00341 120.95947 8241 ft 265 kts 230°
2026-05-05 11:36 24.99134 120.94415 7915 ft 265 kts 231°
2026-05-05 11:37 24.97930 120.92888 7581 ft 265 kts 231°
2026-05-05 11:37 24.96722 120.91355 7274 ft 265 kts 231°
2026-05-05 11:37 24.95513 120.89823 6942 ft 265 kts 230°
2026-05-05 11:37 24.94264 120.88333 6595 ft 265 kts 224°
2026-05-05 11:38 24.92683 120.87295 6271 ft 269 kts 200°
2026-05-05 11:38 24.90816 120.87149 5920 ft 274 kts 172°
2026-05-05 11:38 24.89078 120.87994 5566 ft 278 kts 143°
2026-05-05 11:38 24.87912 120.89643 5357 ft 272 kts 115°
2026-05-05 11:39 24.87565 120.91617 5209 ft 256 kts 88°
2026-05-05 11:39 24.87998 120.93443 5067 ft 239 kts 62°
2026-05-05 11:39 24.88994 120.94829 4941 ft 227 kts 39°
2026-05-05 11:39 24.90139 120.95971 4845 ft 222 kts 46°
2026-05-05 11:40 24.90993 120.97394 4621 ft 225 kts 69°
2026-05-05 11:40 24.91280 120.99072 4346 ft 223 kts 90°
2026-05-05 11:40 24.91382 121.00739 4074 ft 222 kts 75°
2026-05-05 11:40 24.92104 121.02251 3970 ft 217 kts 53°
2026-05-05 11:41 24.93050 121.03523 3888 ft 211 kts 50°
2026-05-05 11:41 24.93977 121.04716 3645 ft 206 kts 49°
2026-05-05 11:41 24.94903 121.05893 3436 ft 200 kts 49°
2026-05-05 11:41 24.95808 121.07047 3272 ft 199 kts 50°
2026-05-05 11:42 24.96711 121.08199 3098 ft 198 kts 50°
2026-05-05 11:42 24.97609 121.09345 2926 ft 196 kts 43°
2026-05-05 11:42 24.98502 121.10446 2695 ft 197 kts 49°
2026-05-05 11:42 24.99387 121.11591 2432 ft 195 kts 50°
2026-05-05 11:43 25.00266 121.12713 2171 ft 193 kts 49°
2026-05-05 11:43 25.01142 121.13818 1927 ft 190 kts 49°
2026-05-05 11:43 25.01993 121.14896 1678 ft 181 kts 49°
2026-05-05 11:43 25.02798 121.15917 1426 ft 171 kts 49°
2026-05-05 11:44 25.03555 121.16877 1230 ft 161 kts 49°
2026-05-05 11:44 25.04270 121.17777 993 ft 152 kts 49°
2026-05-05 11:44 25.04958 121.18621 774 ft 144 kts 48°
2026-05-05 11:44 25.05598 121.19446 545 ft 139 kts 51°
2026-05-05 11:45 25.06228 121.20254 411 ft 140 kts 51°
2026-05-05 11:45 25.06873 121.21051 297 ft 139 kts 51°
2026-05-05 11:45 25.07505 121.21864 120 ft 138 kts 53°
2026-05-05 11:45 25.08082 121.22609 106 ft 109 kts 49°
2026-05-05 11:46 25.08439 121.23060 106 ft 46 kts 49°
2026-05-05 11:46 25.08559 121.23213 104 ft 22 kts 49°
2026-05-05 11:46 25.08655 121.23351 104 ft 24 kts 59°
2026-05-05 11:46 25.08711 121.23523 104 ft 24 kts 79°
2026-05-05 11:47 25.08716 121.23664 104 ft 13 kts 128°
2026-05-05 11:47 25.08664 121.23664 106 ft 5 kts 209°
2026-05-05 11:47 25.08634 121.23629 107 ft 7 kts 229°
2026-05-05 11:47 25.08594 121.23580 105 ft 10 kts 229°
2026-05-05 11:48 25.08484 121.23440 106 ft 14 kts 230°
2026-05-05 11:48 25.08416 121.23351 105 ft 16 kts 229°
2026-05-05 11:48 25.08339 121.23254 105 ft 18 kts 229°
2026-05-05 11:49 25.08253 121.23146 105 ft 17 kts 229°
2026-05-05 11:49 25.08198 121.23133 106 ft 6 kts 152°
2026-05-05 11:49 25.08155 121.23155 107 ft 5 kts 174°
2026-05-05 11:49 25.08118 121.23139 106 ft 7 kts 221°
2026-05-05 11:50 25.08080 121.23092 106 ft 10 kts 229°
2026-05-05 11:50 25.08030 121.23028 105 ft 12 kts 229°
2026-05-05 11:50 25.07968 121.22949 106 ft 15 kts 229°
2026-05-05 11:50 25.07907 121.22871 106 ft 8 kts 229°
2026-05-05 11:51 25.07864 121.22865 106 ft 7 kts 160°
2026-05-05 11:51 25.07825 121.22900 106 ft 6 kts 139°
2026-05-05 11:51 25.07810 121.22915 104 ft 2 kts 139°
2026-05-05 11:51 25.07805 121.22919 105 ft 0 kts 139°